• Join FlightAware (Why Join?)
  • Login
  • US Flag 
08:29PM EDT


 

Airport Tracker/Info


-or-


 

Live Flight TrackerFlight Track Log ✈ SWA862 ✈ 09-Apr-2013 ✈ KTPA - KRDU

Flight Track Log - Related Links

Times and Time Zones

All times are in EDT time to prevent confusion due to time zone crossing. See the SWA862 flight status page for this flight to view local times or setup timezone preferences in your user account.

Time Position Orientation Groundspeed Altitude Reporting Facility
EDT Latitude Longitude Course Direction KTS MPH feet Rate Location/Type
06:20PM 27.9667 -82.5500 204° Southwest 174 200 700  Level Tampa TRACON
06:22PM 27.9000 -82.5833 204° Southwest 220 253 5,200 3,060 Climbing Tampa TRACON
06:23PM 27.9333 -82.6333 307° West 264 304 8,100 2,880 Climbing Tampa TRACON
06:25PM 28.1475 -82.6172 North 328 377 15,100 2,880 Climbing Jacksonville Center
06:26PM 28.2497 -82.6122 North 348 400 18,000 2,820 Climbing Jacksonville Center
06:27PM 28.3603 -82.6072 North 374 430 20,800 2,820 Climbing Jacksonville Center
06:28PM 28.4731 -82.6022 North 392 451 23,700 2,460 Climbing Jacksonville Center
06:29PM 28.5878 -82.5947 North 402 463 25,800 1,680 Climbing Jacksonville Center
06:30PM 28.7067 -82.5944 360° North 408 470 27,100 1,620 Climbing Jacksonville Center
06:31PM 28.8258 -82.6106 353° North 420 483 29,100 1,800 Climbing Jacksonville Center
06:32PM 28.9489 -82.6269 353° North 432 497 30,700 1,800 Climbing Jacksonville Center
06:33PM 29.0742 -82.6456 353° North 437 503 32,700 1,980 Climbing Jacksonville Center
06:34PM 29.1975 -82.6619 353° North 444 511 34,700 2,040 Climbing Jacksonville Center
06:35PM 29.3186 -82.6806 352° North 444 511 36,800 1,620 Climbing Jacksonville Center
06:36PM 29.4375 -82.6922 355° North 444 511 38,000 840 Climbing Jacksonville Center
06:37PM 29.5628 -82.6967 358° North 444 511 38,500 480 Climbing Jacksonville Center
06:38PM 29.6839 -82.6917 North 439 505 39,000 240 Climbing Jacksonville Center
06:39PM 29.8175 -82.6389 19° North 439 505 39,000  Level Jacksonville Center
06:40PM 29.9364 -82.5953 18° North 444 511 39,000  Level Jacksonville Center
06:41PM 30.0447 -82.5589 16° North 449 517 39,000  Level Jacksonville Center
06:42PM 30.1594 -82.5153 18° North 444 511 39,000  Level Jacksonville Center
06:43PM 30.2783 -82.4717 18° North 438 504 39,000  Level Jacksonville Center
06:44PM 30.3950 -82.4253 19° North 438 504 39,000  Level Jacksonville Center
06:45PM 30.5139 -82.3789 19° North 438 504 39,000  Level Jacksonville Center
06:46PM 30.6306 -82.3350 18° North 443 510 39,000  Level Jacksonville Center
06:47PM 30.7494 -82.2906 18° North 443 510 39,000  Level Jacksonville Center
06:48PM 30.8661 -82.2464 18° North 443 510 39,000  Level Jacksonville Center
06:49PM 30.9808 -82.2019 18° North 443 510 39,000  Level Jacksonville Center
06:50PM 31.0975 -82.1597 17° North 437 503 39,000  Level Jacksonville Center
06:51PM 31.2161 -82.1128 19° North 437 503 39,000  Level Jacksonville Center
06:52PM 31.3328 -82.0706 17° North 442 509 39,000  Level Jacksonville Center
06:53PM 31.4517 -82.0208 20° North 442 509 39,000  Level Jacksonville Center
06:54PM 31.5786 -81.9683 19° North 442 509 39,000  Level Jacksonville Center
06:55PM 31.6953 -81.9233 18° North 442 509 39,000  Level Jacksonville Center
06:56PM 31.8014 -81.8806 19° North 442 509 39,000  Level Jacksonville Center
06:57PM 31.9303 -81.8325 18° North 442 509 39,000  Level Jacksonville Center
06:58PM 32.0364 -81.7897 19° North 442 509 39,000  Level Jacksonville Center
06:59PM 32.1531 -81.7467 17° North 442 509 39,000  Level Jacksonville Center
07:00PM 32.2797 -81.6933 20° North 442 509 39,000  Level Jacksonville Center
07:01PM 32.3839 -81.6528 18° North 437 503 39,000  Level Jacksonville Center
07:02PM 32.5106 -81.6017 19° North 442 509 39,000  Level Jacksonville Center
07:03PM 32.6272 -81.5581 17° North 437 503 39,000  Level Jacksonville Center
07:04PM 32.7244 -81.4925 30° Northeast 437 503 39,000  Level Jacksonville Center
07:05PM 32.8303 -81.4192 30° Northeast 431 496 39,000  Level Jacksonville Center
07:06PM 32.9378 -81.3481 29° Northeast 431 496 39,000  Level Jacksonville Center
07:07PM 33.0433 -81.2744 30° Northeast 436 502 39,000  Level Jacksonville Center
07:08PM 33.1511 -81.2031 29° Northeast 436 502 39,000  Level Jacksonville Center
07:09PM 33.2586 -81.1289 30° Northeast 436 502 39,000  Level Jacksonville Center
07:10PM 33.3639 -81.0572 30° Northeast 436 502 39,000 -300 Level Jacksonville Center
07:11PM 33.4672 -80.9778 33° Northeast 442 509 38,400 -840 Descending Jacksonville Center
07:12PM 33.5722 -80.8958 33° Northeast 447 514 37,400 -960 Descending Jacksonville Center
07:13PM 33.6856 -80.8058 33° Northeast 447 514 36,500 -900 Descending Jacksonville Center
07:14PM 33.7906 -80.7258 32° Northeast 447 514 35,600 -960 Descending Jacksonville Center
07:15PM 33.8956 -80.6458 32° Northeast 447 514 34,600 -1,020 Descending Jacksonville Center
07:16PM 33.9986 -80.5631 34° Northeast 447 514 33,600 -1,020 Descending Jacksonville Center
07:17PM 34.0992 -80.4850 33° Northeast 442 509 32,600 -1,080 Descending Jacksonville Center
07:18PM 34.1981 -80.4069 33° Northeast 436 502 31,500 -1,080 Descending Jacksonville Center
07:19PM 34.2964 -80.3289 33° Northeast 431 496 30,500 -1,020 Descending Jacksonville Center
07:20PM 34.3908 -80.2556 33° Northeast 419 482 29,500 -1,020 Descending Jacksonville Center
07:22PM 34.5597 -80.1186 34° Northeast 408 470 27,700 -1,020 Descending Washington Center
07:23PM 34.6522 -80.0431 34° Northeast 403 464 26,700 -1,440 Descending Washington Center
07:24PM 34.7361 -79.9769 33° Northeast 403 464 24,900 -1,800 Descending Washington Center
07:25PM 34.8219 -79.9081 33° Northeast 391 450 23,100 -960 Descending Washington Center
07:26PM 34.9081 -79.8392 33° Northeast 379 436 23,000 -60 Descending Washington Center
07:27PM 34.9981 -79.7678 33° Northeast 373 429 23,000  Level Washington Center
07:28PM 35.0819 -79.6986 34° Northeast 373 429 23,000 -540 Level Washington Center
07:29PM 35.1678 -79.6267 34° Northeast 373 429 22,000 -1,200 Descending Washington Center
07:30PM 35.2536 -79.5625 31° Northeast 367 422 20,700 -1,560 Descending Washington Center
07:31PM 35.3411 -79.5031 29° Northeast 355 409 18,900 -1,860 Descending Washington Center
07:32PM 35.4031 -79.4578 31° Northeast 341 392 17,600 -1,740 Descending Washington Center
07:32PM 35.4222 -79.4458 27° Northeast 342 394 17,200 -1,320 Descending Washington Center
07:32PM 35.4561 -79.4244 27° Northeast 343 395 16,800 -1,500 Descending Washington Center
07:33PM 35.5056 -79.3811 36° Northeast 332 382 15,700 -1,680 Descending Washington Center
07:33PM 35.5294 -79.3489 48° Northeast 331 381 15,000 -1,500 Descending Washington Center
07:34PM 35.5561 -79.3017 55° Northeast 315 362 14,200 -1,620 Descending Washington Center
07:34PM 35.5844 -79.2597 50° Northeast 325 374 13,400 -1,740 Descending Washington Center
07:35PM 35.6111 -79.2097 57° Northeast 332 382 12,500 -1,680 Descending Washington Center
07:35PM 35.6308 -79.1775 53° Northeast 317 365 11,900 -1,620 Descending Washington Center
07:36PM 35.6681 -79.1178 52° Northeast 323 372 10,900 -1,500 Descending Washington Center
07:36PM 35.6833 -79.0953 50° Northeast 309 356 10,400 -1,200 Descending Washington Center
07:37PM 35.7119 -79.0456 55° Northeast 312 359 9,700 -1,200 Descending Washington Center
07:37PM 35.7336 -79.0131 51° Northeast 300 345 9,200 -1,320 Descending Washington Center
07:38PM 35.7603 -78.9631 57° Northeast 300 345 8,400 -1,140 Descending Washington Center
07:38PM 35.7756 -78.9331 58° Northeast 283 326 8,100 -420 Descending Washington Center
07:39PM 35.7978 -78.8853 60° Northeast 280 322 8,000 -120 Descending Washington Center
07:39PM 35.7969 -78.8444 91° East 257 296 8,000 -120 Level Washington Center
07:40PM 35.8003 -78.7958 85° East 256 295 7,900 -840 Descending Washington Center
07:40PM 35.8056 -78.7575 80° East 257 296 7,200 -1,620 Descending Washington Center
07:41PM 35.8275 -78.7072 62° Northeast 256 295 6,300 -1,320 Descending Washington Center
07:41PM 35.8386 -78.6819 62° Northeast 260 299 5,900 -1,560 Descending Washington Center
07:42PM 35.8903 -78.6225 43° Northeast 246 283 4,200 -1,380 Descending Washington Center
07:43PM 35.9508 -78.6197 North 199 229 3,200 -900 Descending Washington Center
07:44PM 35.9472 -78.6761 265° West 161 185 2,500 -780 Descending Washington Center
07:45PM 35.9275 -78.7214 242° Southwest 135 155 1,700 -780 Descending Washington Center
07:46PM 35.9014 -78.7536 225° Southwest 125 144 1,000 -720 Descending Washington Center
07:48PM 35.8667 -78.7833 263° West  Level FlightAware Approximate
07:55PM 35.8776 -78.7875 263° West  Level Estimated
07:56PM 35.8776 -78.7875 263° West  Level Estimated